Regional Weather Roundup
Issued by NWS Jackson, KY

Home | Current Version | Previous Version | Text Only | Print | Product List | Glossary On
Versions: 1 2 3 4 5 6 7 8 9 10 11 12 13 14 15 16 17 18 19 20 21 22 23 24 25 26 27 28 29 30 31 32 33 34 35 36 37 38 39 40 41 42 43 44 45 46 47 48 49 50
000
ASUS43 KJKL 231419
RWRJKL

EAST KENTUCKY HOURLY WEATHER ROUNDUP
NATIONAL WEATHER SERVICE JACKSON KY
1000 AM EDT THU OCT 23 2014

NOTE: "FAIR" INDICATES FEW OR NO CLOUDS BELOW 12,000 FEET WITH
NO SIGNIFICANT WEATHER AND/OR OBSTRUCTIONS TO VISIBILITY.

* THESE REPORTS ARE NOT UNDER NWS QUALITY CONTROL AND MAY NOT
  REPORT WEATHER SUCH AS PRECIPITATION AND FOG.

KYZ079-080-083-085-087-088-110-112-115-119-120-231500
...EASTERN KENTUCKY...

CITY           SKY/WX    TMP DP  RH WIND       PRES   REMARKS
JACKSON        CLOUDY    48  40  73 CALM      30.23S
LONDON         CLOUDY    50  38  63 NE8       30.23F
SOMERSET*      CLOUDY    46  37  71 E8        30.25S
MONTICELLO*    CLOUDY    50  42  73 E12       30.25S
WILLIAMSBURG*  CLOUDY    46  41  81 MISG      30.24
MIDDLESBORO*   CLOUDY    48  39  72 CALM      30.24S
HARLAN APT*    CLOUDY    46  36  66 CALM      30.22F
BLACK MTN*       N/A     36  36 100 NE3         N/A
PIKEVILLE APT* CLOUDY    46  41  81 CALM      30.23R
BIG SANDY*     CLOUDY    48  43  81 NE3       30.24R
MOREHEAD APT*  CLOUDY    48  41  76 CALM      30.26S
ASHLAND*       CLOUDY    48  39  71 CALM      30.24R
$$

KYZ035-036-041-042-044-050-067-078-099-231500
...CENTRAL KENTUCKY...

CITY           SKY/WX    TMP DP  RH WIND       PRES   REMARKS
MT STERLING*   SUNNY     50  39  66 E5        30.25F
FLEMING/MASON* SUNNY     46  41  81 N3        30.27R
DANVILLE*      CLOUDY    46  39  76 E3        30.26S
RICHMOND*      MOSUNNY   50  37  62 E3        30.24S
LEXINGTON      MOSUNNY   52  39  61 E7        30.25S
FRANKFORT      SUNNY     50  40  68 CALM      30.25R
$$

KYZ091>093-OHZ055-061-077-WVZ005-015-034-035-042-231500
...SOUTHERN OHIO/WEST VIRGINIA...

CITY           SKY/WX    TMP DP  RH WIND       PRES   REMARKS
COVINGTON      MOSUNNY   49  41  74 CALM      30.25S
COLUMBUS       CLOUDY    45  42  89 N7        30.25R FOG
DAYTON         MOSUNNY   44  41  89 N5        30.26S FOG
WILMINGTON     SUNNY     47  40  76 N7        30.25R
HUNTINGTON     CLOUDY    48  42  80 N6        30.24R
CHARLESTON     CLOUDY    48  42  80 W3        30.22R
PINEVILLE*     CLOUDY    47  46  93 MISG      30.25S
BECKLEY        CLOUDY    43  39  86 N9        30.18R
BLUEFIELD      CLOUDY    44  37  76 NW7       30.19R
$$

VAZ002-007-008-TNZ017-027-036-066-071-231500
...SOUTHWEST VIRGINIA/EAST TENNESSEE...

CITY           SKY/WX    TMP DP  RH WIND       PRES   REMARKS
WISE*          CLOUDY    43  41  93 N6        30.22R
JONESVILLE*    PTSUNNY   48  37  66 E6        30.25S
ABINGDON*      CLOUDY    47  39  76 CALM      30.21R
BRISTOL        CLOUDY    48  38  68 N6        30.22S
KNOXVILLE      MOSUNNY   50  43  77 NE15      30.21S
OAK RIDGE      SUNNY     52  41  66 VRB5      30.22F
CROSSVILLE     SUNNY     46  40  79 VRB3      30.21R
NASHVILLE      MOSUNNY   49  44  83 NE6       30.23S
$$

...KEY TO REMARKS...
VSB - VISIBILITY IN MILES
WCI - WIND CHILL INDEX
HX  - HEAT INDEX

$$



USA.gov is the U.S. government's official web portal to all federal, state and local government web resources and services.